Погода в Покровке

Россия / Оренбургская область     52°11′36″N   53°07′18″E
темп.,
°C
ветер,
м/с
пор.,
м/с
влажн.,
%
обл.,
%
осадки,
мм/ч
давл.,
гПа
погр.,
м
26 октября, вт
вт2623:00+3ссз81184100 0.3 1021824
02:00+1ссз610715 0.0 1024701
05:00−1ссз5973100 0.0 1026405
08:00−1ссз3679100 0.0 1028274
11:00+1ссз235611 0.0 1029371
14:00+4з33355 0.0 1029784
17:00+4зюз45325 0.0 1028869
20:00+1юз374524 0.0 1029127
27 октября, ср
ср2723:000юз49575 0.0 1029187
02:00−1юз4106288 0.0 1029224
05:00−1юз5116397 0.0 1028253
08:00−1юз5136485 0.0 1027256
11:00+2юз7125266 0.0 1027416
14:00+6юз8114059 0.0 1025686
17:00+6юз7124021 0.0 1024709
20:00+4юз7144877 0.0 1024420
28 октября, чт
чт2823:00+3юз7155090 0.0 1023392
02:00+2юз7165169 0.0 1022375
05:00+1ююз7165261 0.0 1020364
08:000юз8165328 0.0 1019396
11:00+3юз81548100 0.0 1019560
14:00+7зюз811368 0.0 1018957
17:00+6зюз71045100 0.0 1017952
20:00+6юз61051100 0.0 1017580
29 октября, пт
пт2923:00+4юз51050100 0.0 1016412
02:00+4юз5951100 0.0 1015324
05:00+4ююз4953100 0.0 1015282
08:00+4ююз3756100 0.0 1015335
11:00+2ююз2397100 0.8 1017201
14:00+2ссв2299100 2.3 1019197
17:00+1св71197100 3.9 1023500
20:000св7116853 0.2 1027565
30 октября, сб
сб3023:00−4св611741 0.2 1029353
02:00−5ссв49805 0.0 1031243
05:00−6ссв358466 0.0 1033110
08:00−6ссв228116 0.0 103429
11:00−2с226082 0.0 1034158
14:00+1сз224681 0.0 1034318
17:00+1з345929 0.0 103483
20:000з3761100 0.0 1034189